Vertical_Velocity
-0 17 -1 -4 10 -2 1 1 -8 -4 57 1 -9 11 -9 2 12 -2 2 2 -0 0 -7 1 4 -7 -7 1 0 3 3 -6 -6 -5 -4 3 14 -0 -1 -5 2 2 -1 -3
-1 -2 18 -16 -4 -2 -22 -4 3 -8 31 22 -0 -9 -19 0 -2 -5 -4 -3 -2 -6 -0 -0 -0 -13 -9 -7 -7 0 2 -3 4 0 5 1 3 -2 -1 4 -1 1 -2 2
-4 -18 -4 -9 4 12 0 4 -21 9 17 7 23 12 3 0 11 9 4 -1 1 3 -1 1 5 -2 -5 -2 0 8 7 10 3 3 -2 1 -0 2 2 -3 -4 -3 -0 -1
-27 -9 -7 5 6 -9 14 -15 -2 3 18 -4 1 -3 10 16 -2 2 8 2 0 -8 1 9 11 5 1 -3 4 -2 2 6 1 0 -0 -0 1 -3 -0 -3 -1 3 2 1
-3 -4 2 2 -13 1 -18 3 -1 5 17 7 2 -5 -18 -18 13 12 15 11 0 3 -5 -7 3 9 1 -3 5 1 5 3 2 -2 -2 1 -5 -6 2 -1 -0 -1 -1 -3
2 -5 -3 -25 1 -7 -10 12 9 7 -2 -2 -6 4 -6 -11 -11 -30 -40 11 11 6 -0 -2 2 3 5 3 0 2 1 2 1 -0 -5 -3 -5 -6 -6 -6 -5 -5 -4 -1
5 4 -42 -8 3 7 8 16 -3 -6 -6 -6 7 1 -36 0 5 -7 -6 -4 12 -0 2 1 -9 -6 -5 -0 0 2 -0 -0 2 -3 -7 -0 -1 -1 -0 -0 -1 4 3 -5
1 3 -6 3 2 -41 -3 7 -4 -4 -2 -5 -8 -1 -1 -10 -4 -3 6 18 4 -0 0 -0 -0 2 -1 1 1 0 -1 -1 -0 1 1 0 0 -3 -2 3 5 2 1 2
7 4 -18 24 -3 48 0 -1 -1 -1 4 -4 -7 19 4 -2 -6 -2 -0 -1 -5 -1 -4 1 3 -0 2 -2 2 1 -4 -4 -3 3 5 3 4 6 6 5 9 7 8 1
-3 -6 -9 -11 -7 -6 -3 6 4 7 -2 -0 -0 4 -1 1 7 -15 -9 -7 1 -1 -1 -4 -6 -3 -2 -3 -2 3 3 3 3 1 2 3 7 7 6 7 -6 -2 2 1
3 -0 2 -2 -21 -5 1 -3 -0 3 5 -4 -2 -0 6 4 -7 -4 -3 -2 -4 -4 -6 -4 -3 -1 3 4 4 5 5 1 -1 -1 1 2 5 7 5 1 -4 1 5 -0
-4 4 -9 -34 -5 9 4 2 1 5 -5 2 0 -13 1 -2 0 4 11 1 -1 -3 -4 -2 -2 -3 -5 -5 -3 4 7 3 2 0 -4 -1 3 4 4 4 -2 10 -2 7
-3 9 2 8 24 7 -4 3 0 16 4 -2 -5 -8 7 2 10 4 -0 -4 -7 -1 1 -3 -5 -6 -3 -3 -7 -5 -1 2 1 -2 0 4 7 8 -4 -0 5 0 3 0
-0 -1 -2 -9 -5 6 4 -0 -3 9 2 -2 -9 -8 -13 10 12 -1 -3 3 4 1 0 1 -0 -4 -1 5 14 8 -3 -3 -7 3 6 6 2 -0 1 -1 2 0 -0 -1
2 -2 -2 -5 2 12 -14 -2 4 16 5 -2 -11 -8 -20 22 6 4 2 5 3 8 10 3 8 7 4 7 9 8 10 5 5 -2 0 -2 -1 -1 -1 6 0 -0 -0 4
-1 -3 -1 -5 -2 6 -3 -6 -6 -2 1 10 15 2 32 18 10 6 10 9 8 6 -2 2 5 12 10 16 8 12 3 -2 -1 1 0 3 -1 2 4 5 10 8 1 1
-2 -3 -3 -7 -5 -5 -9 -7 -5 -1 1 5 3 7 -0 8 8 3 1 -2 -4 -3 -1 3 10 -4 1 -2 4 -0 0 3 5 10 6 0 -3 -1 -0 10 6 1 -4 -1
-3 3 0 -3 1 -4 -15 9 1 8 4 8 6 4 -1 1 -1 -0 1 -3 -1 -0 -2 -5 -1 2 -5 -9 -2 9 6 2 2 3 4 2 -2 8 9 4 -1 -5 -0 -7
2 -1 -3 -4 -2 -4 7 -4 -2 2 1 2 -1 1 4 0 1 -1 -3 -4 -4 1 3 -2 -10 -5 -2 -2 -3 0 6 1 1 3 -1 -1 6 9 12 0 -9 -6 -12 -6
-1 1 3 1 -2 -5 -1 1 1 6 -2 -0 1 -2 -2 -3 -4 -4 -1 1 2 4 -2 -3 -2 -2 -1 1 1 1 5 6 1 -5 3 8 20 10 -6 -1 -5 -7 -6 -1
1 6 -1 1 -2 -1 -4 1 2 6 1 -6 -3 -2 -3 -3 -4 -4 -2 -7 -8 -1 -4 -1 -0 -2 1 2 1 -1 -1 4 -0 8 14 15 -2 -1 -1 -4 -8 -7 1 2
-3 -3 -2 2 -1 -10 0 5 -0 -2 -2 -2 -2 -2 -7 -4 0 3 -4 -1 -8 -2 4 8 3 2 3 1 3 7 8 6 7 15 1 -4 -5 -6 -7 -7 -0 2 -1 -2
-2 -8 -9 -4 -2 -0 -1 1 -3 -7 -1 -1 -0 -4 -2 1 -1 -7 -7 -1 2 3 1 1 4 0 4 2 3 6 15 -2 -7 -3 -1 -1 -1 -5 -2 2 3 2 -1 -1
1 -4 -0 -2 3 14 1 0 -3 -9 -5 -2 -3 -2 -2 1 1 1 1 -0 -1 1 2 1 -1 1 -1 -1 -2 -3 -5 -4 -3 -1 -1 -1 -1 1 0 0 -1 -2 0 -0
-2 0 1 12 6 3 4 1 -3 -7 -2 -1 -0 -0 -1 0 -1 -0 -0 0 3 -2 -2 -2 -2 -2 -1 -1 -2 -2 0 2 -0 -3 -4 -1 -1 -1 -1 2 0 -1 3 -4
-1 -5 -6 -10 -6 3 -0 -4 1 6 4 1 -1 -1 -2 -2 -1 -1 -2 -1 1 -1 -2 -2 -0 -1 -1 -0 -1 -3 -3 -2 -2 -1 -4 -4 -3 0 0 -4 -1 12 1 1
Height
3123 3125 3124 3124 3126 3126 3127 3128 3128 3128 3128 3128 3129 3131 3132 3135 3137 3138 3139 3139 3141 3141 3143 3144 3145 3145 3148 3151 3154 3156 3157 3158 3156 3157 3156 3157 3159 3159 3159 3159 3159 3158 3158 3158
3125 3123 3125 3125 3124 3126 3127 3127 3128 3126 3126 3128 3128 3128 3130 3132 3133 3135 3137 3139 3141 3141 3142 3143 3143 3141 3143 3147 3148 3151 3152 3153 3153 3154 3154 3155 3155 3154 3155 3156 3156 3156 3155 3153
3123 3125 3125 3126 3127 3127 3125 3129 3128 3127 3127 3128 3128 3128 3129 3131 3133 3135 3136 3137 3138 3139 3140 3141 3142 3141 3141 3143 3145 3147 3150 3151 3150 3150 3150 3150 3150 3151 3153 3152 3152 3151 3149 3147
3122 3124 3124 3126 3124 3125 3125 3127 3127 3125 3128 3126 3126 3128 3131 3131 3131 3134 3135 3135 3135 3137 3139 3141 3142 3139 3140 3141 3143 3145 3148 3147 3146 3146 3147 3146 3147 3147 3148 3147 3147 3146 3143 3140
3121 3121 3122 3122 3123 3124 3125 3125 3125 3125 3125 3124 3125 3128 3128 3131 3132 3133 3134 3132 3131 3132 3134 3136 3138 3140 3137 3138 3140 3141 3142 3141 3141 3141 3142 3142 3141 3141 3141 3141 3141 3140 3138 3135
3118 3118 3120 3120 3120 3123 3122 3123 3123 3122 3122 3123 3123 3125 3123 3123 3123 3126 3127 3130 3130 3130 3130 3132 3134 3134 3135 3136 3136 3136 3136 3136 3137 3138 3138 3137 3134 3134 3133 3133 3131 3129 3126 3125
3117 3117 3119 3117 3120 3122 3122 3122 3123 3125 3125 3124 3123 3123 3117 3116 3118 3118 3120 3123 3128 3128 3127 3127 3127 3129 3129 3130 3130 3131 3132 3133 3136 3134 3133 3133 3131 3130 3130 3128 3125 3123 3121 3118
3115 3119 3119 3119 3120 3121 3121 3120 3123 3127 3128 3121 3120 3117 3113 3111 3115 3117 3120 3120 3124 3125 3126 3124 3125 3126 3127 3126 3127 3127 3128 3130 3131 3130 3129 3129 3129 3126 3125 3123 3122 3119 3116 3113
3112 3115 3117 3118 3119 3122 3120 3119 3119 3118 3121 3123 3119 3116 3113 3111 3113 3115 3115 3116 3118 3121 3122 3123 3123 3122 3123 3123 3123 3124 3122 3122 3124 3126 3128 3127 3125 3123 3121 3118 3115 3112 3109 3105
3109 3112 3114 3116 3116 3115 3117 3119 3119 3117 3121 3121 3114 3113 3112 3113 3112 3112 3112 3114 3117 3117 3117 3117 3116 3117 3118 3118 3119 3121 3120 3120 3121 3121 3122 3121 3120 3119 3115 3112 3108 3103 3101 3095
3106 3109 3113 3114 3113 3112 3115 3114 3115 3116 3116 3116 3120 3116 3114 3113 3113 3113 3113 3112 3112 3113 3114 3113 3113 3113 3115 3116 3118 3118 3117 3114 3113 3113 3114 3113 3112 3109 3107 3103 3100 3095 3090 3086
3104 3105 3108 3109 3108 3111 3112 3111 3112 3112 3114 3113 3113 3114 3113 3113 3111 3111 3111 3110 3110 3111 3110 3110 3109 3108 3108 3109 3111 3114 3114 3111 3108 3106 3105 3104 3102 3101 3097 3093 3089 3085 3082 3076
3100 3101 3105 3107 3110 3108 3108 3108 3109 3110 3109 3110 3112 3113 3111 3110 3109 3108 3107 3107 3108 3108 3107 3106 3105 3103 3102 3102 3103 3104 3106 3106 3104 3101 3098 3096 3094 3092 3089 3085 3079 3077 3071 3067
3097 3099 3100 3102 3104 3105 3104 3103 3104 3106 3106 3108 3108 3108 3108 3107 3106 3105 3105 3105 3104 3104 3104 3102 3101 3099 3097 3097 3097 3097 3098 3098 3097 3094 3092 3090 3088 3084 3079 3075 3071 3066 3061 3059
3094 3096 3098 3099 3100 3102 3101 3102 3101 3103 3103 3103 3105 3106 3105 3105 3104 3102 3102 3103 3103 3104 3102 3101 3098 3097 3097 3096 3095 3094 3093 3091 3090 3087 3084 3082 3079 3074 3071 3067 3062 3057 3054 3052
3089 3091 3094 3096 3097 3096 3096 3098 3097 3098 3098 3099 3101 3102 3104 3101 3099 3099 3099 3099 3099 3099 3099 3098 3096 3095 3095 3093 3091 3089 3087 3084 3082 3079 3077 3075 3071 3068 3063 3057 3052 3049 3045 3042
3085 3088 3090 3092 3093 3093 3093 3092 3093 3093 3095 3096 3097 3096 3096 3095 3094 3093 3094 3093 3093 3093 3093 3093 3093 3089 3088 3086 3087 3082 3080 3079 3076 3073 3069 3065 3061 3058 3052 3048 3045 3040 3037 3035
3082 3085 3087 3089 3091 3093 3088 3089 3089 3090 3090 3091 3091 3090 3089 3090 3089 3090 3089 3089 3088 3087 3085 3087 3087 3086 3085 3083 3081 3078 3076 3072 3069 3065 3061 3055 3052 3047 3041 3036 3032 3033 3030 3026
3079 3082 3084 3086 3086 3086 3084 3085 3086 3085 3087 3087 3086 3086 3086 3087 3087 3086 3086 3084 3084 3082 3081 3080 3079 3079 3077 3075 3073 3071 3068 3064 3061 3057 3052 3045 3041 3035 3030 3030 3030 3026 3022 3021
3075 3077 3081 3081 3082 3083 3080 3081 3082 3082 3083 3083 3083 3084 3084 3083 3083 3083 3082 3080 3078 3077 3077 3076 3074 3072 3069 3067 3065 3062 3059 3056 3052 3045 3039 3035 3031 3030 3030 3028 3023 3020 3016 3013
3070 3072 3074 3076 3077 3077 3076 3078 3078 3080 3083 3078 3079 3080 3080 3081 3080 3077 3075 3073 3071 3070 3070 3070 3067 3064 3062 3060 3057 3054 3051 3047 3043 3038 3035 3030 3030 3029 3026 3022 3017 3013 3010 3005
3066 3068 3071 3073 3074 3074 3072 3073 3075 3075 3074 3075 3076 3075 3075 3076 3076 3072 3068 3065 3066 3066 3065 3063 3061 3059 3056 3053 3051 3048 3043 3038 3037 3035 3032 3029 3025 3023 3018 3012 3010 3007 3002 2998
3063 3064 3065 3068 3068 3068 3068 3067 3068 3071 3071 3071 3071 3071 3071 3071 3068 3065 3064 3063 3061 3060 3059 3056 3055 3052 3049 3046 3043 3040 3037 3034 3030 3027 3025 3021 3017 3013 3009 3006 3003 2998 2994 2989
3057 3060 3062 3065 3065 3065 3062 3063 3064 3067 3067 3067 3067 3066 3065 3064 3062 3061 3059 3057 3055 3053 3050 3048 3045 3042 3039 3037 3034 3032 3029 3027 3024 3021 3017 3013 3009 3006 3003 2999 2995 2990 2986 2981
3055 3057 3059 3062 3060 3060 3059 3059 3059 3061 3060 3062 3062 3060 3058 3057 3055 3053 3051 3049 3047 3043 3041 3039 3037 3034 3031 3029 3027 3024 3021 3019 3016 3013 3009 3006 3003 2999 2995 2991 2986 2981 2977 2972
3050 3052 3054 3054 3054 3055 3056 3056 3057 3056 3056 3056 3054 3053 3052 3050 3048 3045 3043 3040 3038 3036 3034 3032 3030 3028 3025 3023 3020 3018 3015 3012 3009 3006 3002 2998 2994 2990 2985 2981 2977 2973 2967 2962